Tracking 28794 objects as of 22-Apr-2024
HD Live streaming from Space Station
objects crossing your sky now

RADUGA 6

Track RADUGA 6 now!
RADUGA 6 is classified as:


NORAD ID: 11708
Int'l Code: 1980-016A
Perigee: 35,796.6 km
Apogee: 35,809.1 km
Inclination: 7.6 °
Period: 1,436.6 minutes
Semi major axis: 42173 km
RCS: 1.2589 m2 (large)
Launch date: February 20, 1980
Source: Commonwealth of Independent States (former USSR) (CIS)
Launch site: TYURATAM MISSILE AND SPACE COMPLEX (TTMTR)
Your satellite tracking list
Your tracking list is empty




NASA's NSSDC Master Catalog

Two Line Element Set (TLE):
1 11708U 80016A   24112.54994126  .00000124  00000-0  00000+0 0  9998
2 11708   7.6469 294.7110 0001479 215.5657 303.4139  1.00239258114264
Source of the keplerian elements: AFSPC